This is the latest recevied weather packets stored in our database for station/object KG7FOQ-13. If no packets are shown the sender has not sent any weather packets the latest 10 day(s).
| Time | Temp. | Humidity | Pressure | Rain* | Wind** | Luminosity | Snow |
|---|---|---|---|---|---|---|---|
| 1787797960 | 27.22° C | 31% | 1016.2 hPa | 0 mm | - | - | - |
| 1787797660 | 27.22° C | 30% | 1016 hPa | 0 mm | - | - | - |
| 1787797359 | 27.78° C | 30% | 1016 hPa | 0 mm | - | - | - |
| 1787797058 | 27.78° C | 30% | 1016.2 hPa | 0 mm | - | - | - |
| 1787796759 | 27.22° C | 30% | 1016 hPa | 0 mm | - | - | - |
| 1787796457 | 27.78° C | 27% | 1016 hPa | 0 mm | - | - | - |
| 1787796158 | 28.33° C | 26% | 1016 hPa | 0 mm | - | - | - |
| 1787795858 | 27.78° C | 28% | 1015.9 hPa | 0 mm | - | - | - |
| 1787795556 | 27.22° C | 31% | 1016 hPa | 0 mm | - | - | - |
| 1787795319 | 27.78° C | 30% | 1016 hPa | 0 mm | - | - | - |
| 1787795256 | 27.78° C | 30% | 1016 hPa | 0 mm | - | - | - |
| 1787794955 | 27.78° C | 31% | 1016 hPa | 0 mm | - | - | - |
| 1787794654 | 27.78° C | 33% | 1016 hPa | 0 mm | - | - | - |
| 1787794353 | 27.22° C | 36% | 1015.9 hPa | 0 mm | - | - | - |
| 1787793752 | 27.22° C | 39% | 1016 hPa | 0 mm | - | - | - |
| 1787793452 | 26.67° C | 40% | 1016 hPa | 0 mm | - | - | - |
| 1787793187 | 27.22° C | 40% | 1016 hPa | 0 mm | - | - | - |
| 1787793150 | 27.22° C | 40% | 1016 hPa | 0 mm | - | - | - |
| 1787792849 | 27.78° C | 38% | 1016.2 hPa | 0 mm | - | - | - |
| 1787792549 | 27.78° C | 36% | 1016.2 hPa | 0 mm | - | - | - |
| 1787792248 | 27.78° C | 34% | 1016.3 hPa | 0 mm | - | - | - |
| 1787792101 | 28.33° C | 34% | 1016.2 hPa | 0 mm | - | - | - |
| 1787791948 | 28.33° C | 34% | 1016.2 hPa | 0 mm | - | - | - |
| 1787791647 | 28.33° C | 36% | 1016.3 hPa | 0 mm | - | - | - |
| 1787791346 | 28.33° C | 34% | 1016.3 hPa | 0 mm | - | - | - |
* Rain latest hour (hover to see other rain measurements)
** Current wind speed in m/s (hover to see current wind gust speed)